Regional Weather Roundup
Issued by NWS

Home | Current Version | Previous Version | Text Only | Print | Product List | Glossary Off
Versions: 1 2 3 4 5 6 7 8 9 10 11 12 13 14 15 16 17 18 19 20 21 22 23 24 25 26 27 28 29 30 31 32 33 34 35 36 37 38 39 40 41 42 43 44 45 46 47 48 49 50

369
ASUS43 KLSX 210910
RWRMO

WEATHER SUMMARY FOR MISSOURI
NATIONAL WEATHER SERVICE SPRINGFIELD MO
400 AM CDT MON MAY 21 2018

NOTE: "FAIR" INDICATES FEW OR NO CLOUDS BELOW 12,000 FEET WITH NO
       SIGNIFICANT WEATHER AND/OR OBSTRUCTIONS TO VISIBILITY.
       CURRENT SKY AND/OR WEATHER CONDITIONS ARE NOT AVAILABLE FOR
       CHILLICOTHE AND FARMINGTON.

MOZ001>031-035>038-043-044-053-054-211000-
...NORTHERN AND WESTERN MISSOURI...

CITY           SKY/WX    TMP DP  RH WIND       PRES   REMARKS
KANSAS CTY INT FOG       61  61 100 W6        30.02F VSB 1/2
KANSAS C DTWN  CLOUDY    63  60  90 W6        30.02S FOG
LEE`S SUMMIT   CLOUDY    62  62 100 W6        30.02F
ST JOSEPH      CLOUDY    60  60 100 NW5       30.02S FOG
CHILLICOTHE      N/A     66  65  96 VRB3      30.00F
KIRKSVILLE     CLOUDY    65  64  97 S8        30.01F

$$
MOZ066>068-077>081-088>096-101>105-211000-
...SOUTHWEST MISSOURI...

CITY           SKY/WX    TMP DP  RH WIND       PRES   REMARKS
SPRINGFIELD    CLOUDY    67  64  90 S10       30.02F
JOPLIN         CLOUDY    64  63  96 NW3       30.04S
BRANSON        CLOUDY    66  66 100 CALM      30.03S FOG

$$
MOZ032>034-039>042-045>050-055>058-069>072-211000-
...CENTRAL MISSOURI...

CITY           SKY/WX    TMP DP  RH WIND       PRES   REMARKS
COLUMBIA       CLOUDY    64  63  96 S7        30.01F
JEFFERSON CITY CLOUDY    66  63  90 SE7       30.02S
ROLLA          CLOUDY    63  62  97 SE7       30.04S
SEDALIA        CLOUDY    66  66 100 SW6       30.02S
WHITEMAN AFB   CLOUDY    65  65  98 SW7       29.97F
WARRENSBURG    CLOUDY    64  63  94 W3        30.01S FOG
OSAGE BEACH    CLOUDY    64  64 100 SE5       30.03S

$$
MOZ051-052-059>065-211000-
...EAST CENTRAL MISSOURI...

CITY           SKY/WX    TMP DP  RH WIND       PRES   REMARKS
ST LOUIS INTL  CLOUDY    66  65  96 S5        30.04R
SPIRIT OF STL  PTCLDY    65  64  97 CALM      30.02S
ST CHARLES     CLOUDY    66  65  96 S7        30.02S

$$
MOZ072>076-082>087-097>100-106>115-211000-
...SOUTH CENTRAL AND SOUTHEAST MISSOURI...

CITY           SKY/WX    TMP DP  RH WIND       PRES   REMARKS
CAPE GIRARDEAU LGT RAIN  69  67  93 S7        30.10R
FARMINGTON     CLOUDY    64  63  96 SE8       30.08S
POPLAR BLUFF   LGT RAIN  68  68 100 E3        30.06F
WEST PLAINS    CLOUDY    67  66  97 E7        30.06F

$$




USA.gov is the U.S. government's official web portal to all federal, state and local government web resources and services.